Погода в Баташе

Узбекистан     38°39′52″N   66°17′54″E
темп.,
°C
ветер,
м/с
пор.,
м/с
влажн.,
%
обл.,
%
осадки,
мм/ч
давл.,
гПа
погр.,
м
9 мая, вс
вс923:00+23всв114188 0.0 101111
02:00+22з4641100 0.0 101199
05:00+20юз225096 0.0 101122
08:00+22вюв124833 0.4 1013235
11:00+27сз553949 1.3 1013982
14:00+28сз543868 0.1 10121397
17:00+29ссз333391 0.1 10101500
20:00+25ссв334232 0.0 101035
10 мая, пн
пн1023:00+22всв23505 0.0 100822
02:00+20зсз126142 0.1 100712
05:00+19ссз116685 0.6 100811
08:00+24ююв1248100 0.0 1008256
11:00+28з4435100 0.0 10081265
14:00+30юз4631100 0.1 10072148
17:00+29з4333100 0.1 10061105
20:00+24сз22460 0.0 100719
11 мая, вт
вт1123:00+21юз23625 0.3 100943
02:00+19вюв13729 0.7 100956
05:00+17всв34755 1.6 101066
08:00+21ссв33528 0.1 1012301
11:00+26с11377 0.7 1012995
14:00+29с33280 0.0 10112106
17:00+29св7626100 0.0 10101751
20:00+22ссв5102722 0.0 1012271
12 мая, ср
ср1223:00+19ссв33340 0.0 101244
02:00+17св22350 0.0 101220
05:00+16ссв23410 0.0 101246
08:00+21св22370 0.0 1013258
11:00+26сз11293 0.0 10121012
14:00+30с2322100 0.0 10102227
17:00+29ссв9720100 0.0 10101867
20:00+23ссв7123384 0.0 1010385
13 мая, чт
чт1323:00+18ссв5103816 0.0 1011261
02:00+16ссв594163 0.0 1010197
05:00+15св484731 0.0 1009155
08:00+20св343819 0.0 1010239
11:00+27зсз2224100 0.0 10091009
14:00+30зсз431797 0.0 10082236
17:00+30ссв541442 0.0 10072230
20:00+22ссв61130100 0.0 1009320